Powrót do katalogu

NOAA 12

AktywnyPogodaSSO
NORAD 21263·PAYLOAD·🇺🇸 United States

Wystrzelony May 14, 1991 z Vandenberg Space Force Base

Loading…

Następne Przeloty (najbliższe 24 godziny)

TLE

ŚwieżeSource: Space-Track

Epoka: Sep 14, 2026, 13:01 UTC

1 21263U 91032A   26257.54249203  .00000051  00000-0  39167-4 0  9996
2 21263  98.6301 244.7690 0014551 124.6858 235.5696 14.26760712837702

Śledź NOAA 12 w czasie rzeczywistym z AllMySat

Download on the App Store